Location: Mohawk View
(42.7837°N, 73.7885°W)
Time: 02:19:42
(UTC+00:00)

Tsikada Rocket - Pass Details

Date: 17 June 2021
Orbit: 959 x 1008 km, 82.9° (Epoch: 02 August)

Event Time Altitude Azimuth Distance (km) Brightness Sun altitude
Exits shadow 04:43:08 47° 148° (SSE) 1,258 4.2 -23.8°
Maximum altitude 04:44:43 63° 93° (E) 1,076 4.1 -23.8°
Drops below altitude 10° 04:50:49 10° 14° (NNE) 2,706 7.3 -23.8°
Sets 04:53:20 0° 11° (NNE) 3,653 8.3 -23.8°
